KOREASAT 5A

Last updated on Sun Jun 21 2026 00:03:07 GMT+0000 (Coordinated Universal Time)

1 42984U 17067A 26171.41438541 -.00000363 00000+0 00000+0 0 9996 2 42984 0.0149 314.4364 0000645 107.1090 109.4054 1.00273371 31563
UTC large
Height (km)
Speed (km/s)
/
Latitude / Longitude
Inclination (degrees)
Orbital Period (minutes)
Azimuth
Elevation
Range (km)
Doppler Factor

Next 0 passes for location: London (51.5072 / 0.1276)

No passes found over London.
KOREASAT 5A